ASTRA 2G                
1 40364U 14089A   19259.12262233  .00000142  00000-0  00000+0 0  9992
2 40364   0.0512 343.2089 0002240 127.2576 316.6565  1.00273336 17290
BREEZE-M R/B            
1 40365U 14089B   19258.04582214 -.00000111  00000-0  00000+0 0  9994
2 40365  23.5033  92.5422 6047861 231.4673  57.1303  2.19524484 37804
BREEZE-M DEB [TANK]     
1 40366U 14089C   19258.18158346  .00000800  00000-0  25278-3 0  9997
2 40366  49.4934 179.1069 5217957  45.7462 346.7811  5.23008335 89816